Fort Leonard Wood, MO

7:34 PM CST on December 05, 2019 (GMT -0600)
Waynesville Regional At Forney Field

Weather History for KTBN - November, 2019

Change the Weather History Date:

Saturday, November 16, 2019

  Actual Average Record
Temperature  
Mean Temperature 40 °F -  
Max Temperature 55 °F 54 °F 77 °F (2016)
Min Temperature 25 °F 38 °F 20 °F (2014)
Degree Days  
Heating Degree Days 25    
Moisture  
Dew Point 26 °F    
Average Humidity 53    
Maximum Humidity 75    
Minimum Humidity 33    
Precipitation  
Precipitation 0.00 in - - ()
Sea Level Pressure  
Sea Level Pressure 30.22 in    
Wind  
Wind Speed 6 mph (SE)    
Max Wind Speed 10 mph    
Max Gust Speed -    
Visibility 5 miles    
Events      
Averages and records for this station are not official NWS values.
T = Trace of Precipitation, MM = Missing Value Source: NWS Daily Summary

Daily Weather History Graph

Daily Weather History Graph

Search for Another Location

Airport or City:

Astronomy

Nov. 16, 2019 Rise Set
Actual Time 6:49 AM CST 4:56 PM CST
Civil Twilight 6:21 AM CST 5:24 PM CST
Nautical Twilight 5:49 AM CST 5:56 PM CST
Astronomical Twilight 5:18 AM CST 6:27 PM CST
Moon 8:31 PM CST (11/16) 10:41 AM CST (11/16)
Length of Visible Light 11h 03m
Length of Day
10h 07m
Waning Gibbous, 82% of the Moon is Illuminated
Nov 16
Waning Gibbous
Nov 19
Last Quarter
Nov 26
New
Dec 4
First Quarter
Dec 11
Full

Hourly Weather History & Observations

Time (CST) Temp. Windchill Dew Point Humidity Pressure Visibility Wind Dir Wind Speed Gust Speed Precip Events Conditions
12:56 AM 29.3 °F 23.2 °F 18.3 °F 64% 30.34 in 10.0 mi SE 5.8 mph - N/A   Clear
1:56 AM 29.7 °F 24.7 °F 19.0 °F 65% 30.33 in 7.0 mi SE 4.6 mph - N/A   Clear
2:56 AM 27.5 °F 20.2 °F 19.0 °F 71% 30.32 in 6.0 mi SE 6.9 mph - N/A   Haze
3:56 AM 27.9 °F 21.5 °F 19.0 °F 69% 30.32 in 4.0 mi SE 5.8 mph - N/A   Haze
4:56 AM 26.4 °F 18.9 °F 19.6 °F 75% 30.33 in 5.0 mi SE 6.9 mph - N/A   Haze
5:56 AM 25.9 °F 19.2 °F 18.7 °F 74% 30.33 in 3.0 mi SE 5.8 mph - N/A   Haze
6:56 AM 26.1 °F 19.4 °F 18.9 °F 74% 30.33 in 3.0 mi SE 5.8 mph - N/A   Haze
7:01 AM 26.6 °F 20.0 °F 19.4 °F 74% 30.34 in 2.5 mi SE 5.8 mph - N/A   Haze
7:26 AM 26.6 °F 19.1 °F 19.4 °F 74% 30.34 in 2.0 mi SE 6.9 mph - N/A   Haze
7:56 AM 31.5 °F 26.8 °F 21.0 °F 65% 30.33 in 2.2 mi SE 4.6 mph - N/A   Haze
8:56 AM 36.1 °F 31.4 °F 21.9 °F 56% 30.32 in 10.0 mi SE 5.8 mph - N/A   Clear
9:56 AM 42.8 °F 38.6 °F 22.5 °F 45% 30.33 in 10.0 mi SE 6.9 mph - N/A   Clear
10:56 AM 47.1 °F - 26.8 °F 45% 30.31 in 7.0 mi SE 5.8 mph - N/A   Clear
11:56 AM 50.2 °F - 28.0 °F 42% 30.27 in 5.0 mi SE 3.5 mph - N/A   Haze
12:56 PM 52.7 °F - 29.7 °F 41% 30.23 in 10.0 mi SE 5.8 mph - N/A   Clear
2:26 PM 55.4 °F - 28.4 °F 36% 30.19 in 1.4 mi ESE 8.1 mph - N/A   Haze
2:31 PM 53.6 °F - 28.4 °F 38% 30.19 in 0.9 mi SE 6.9 mph - N/A   Haze
2:46 PM 55.4 °F - 28.4 °F 36% 30.18 in 1.0 mi SE 10.4 mph - N/A   Haze
2:56 PM 54.9 °F - 27.0 °F 34% 30.18 in 1.0 mi SSE 8.1 mph - N/A   Haze
3:01 PM 55.4 °F - 26.6 °F 33% 30.17 in 1.0 mi ESE 8.1 mph - N/A   Haze
3:11 PM 55.4 °F - 26.6 °F 33% 30.17 in 0.9 mi SSE 6.9 mph - N/A   Haze
3:21 PM 55.4 °F - 26.6 °F 33% 30.17 in 1.0 mi SSE 9.2 mph - N/A   Haze
3:51 PM 55.4 °F - 28.4 °F 36% 30.17 in 2.2 mi SSE 5.8 mph - N/A   Haze
3:56 PM 54.3 °F - 27.3 °F 35% 30.17 in 4.0 mi SSE 4.6 mph - N/A   Haze
4:11 PM 53.6 °F - 30.2 °F 41% 30.17 in 1.8 mi SSE 4.6 mph - N/A   Haze
4:21 PM 53.6 °F - 28.4 °F 38% 30.16 in 2.0 mi SSE 8.1 mph - N/A   Haze
4:56 PM 48.9 °F - 28.6 °F 45% 30.15 in 1.9 mi SE 5.8 mph - N/A   Haze
5:16 PM 48.2 °F - 28.4 °F 46% 30.15 in 2.2 mi ESE 5.8 mph - N/A   Haze
5:26 PM 48.2 °F - 28.4 °F 46% 30.15 in 4.0 mi ESE 5.8 mph - N/A   Haze
5:56 PM 45.5 °F 42.5 °F 29.8 °F 54% 30.16 in 10.0 mi SE 5.8 mph - N/A   Clear
6:56 PM 42.4 °F 38.8 °F 28.8 °F 58% 30.16 in 10.0 mi SE 5.8 mph - N/A   Clear
7:56 PM 41.0 °F 35.8 °F 29.3 °F 63% 30.14 in 10.0 mi SE 8.1 mph - N/A   Clear
8:56 PM 39.0 °F 32.8 °F 29.3 °F 68% 30.13 in 10.0 mi SE 9.2 mph - N/A   Partly Cloudy
9:56 PM 37.8 °F 34.2 °F 29.5 °F 72% 30.12 in 10.0 mi SE 4.6 mph - N/A   Overcast
10:56 PM 36.5 °F 31.0 °F 29.3 °F 75% 30.14 in 10.0 mi SE 6.9 mph - N/A   Mostly Cloudy
11:56 PM 38.8 °F 33.8 °F 29.5 °F 69% 30.11 in 10.0 mi ESE 6.9 mph - N/A   Partly Cloudy